Regional Weather Roundup
Issued by NWS

Home | Current Version | Previous Version | Text Only | Print | Product List | Glossary On
Versions: 1 2 3 4 5 6 7 8 9 10 11 12 13 14 15 16 17 18 19 20 21 22 23 24 25 26 27 28 29 30 31 32 33 34 35 36 37 38 39 40 41 42 43 44 45 46 47 48 49 50
000
ASUS44 KJAN 291010
RWRMS

MISSISSIPPI HOURLY WEATHER ROUNDUP
NATIONAL WEATHER SERVICE JACKSON MS
500 AM CDT SAT AUG 29 2015

NOTE: "FAIR: INDICATES FEW OR NO CLOUDS BELOW 12,000 FEET WITH NO
SIGNIFICANT WEATHER AND/OR OBSTRUCTIONS TO VISIBILITY.

MSZ001>002-007>008-010>013-018>021-025>028-034>036-291100-
NORTHWEST MISSISSIPPI

CITY           SKY/WX    TMP DP  RH WIND       PRES   REMARKS
CLARKSDALE       N/A     66  66 100 E3        30.03R
CLEVELAND      FAIR      65  64  96 CALM      30.01S
GREENWOOD      CLEAR     69  64  84 E3        30.02S
GREENVILLE     CLEAR     64  61  90 CALM      30.00S
OLIVE BRANCH   CLEAR     70  70 100 SE5       30.05R
OXFORD         FAIR      68  66  94 SE7       30.06S
TUNICA         MOSUNNY   64  63  94 E3        30.03S FOG
$$

MSZ003>006-009-014>017-022>024-029>033-037>039-291100-
NORTHEAST MISSISSIPPI

CITY           SKY/WX    TMP DP  RH WIND       PRES   REMARKS
COLUMBUS AFB   CLEAR     70  68  92 SE2       30.05R
CORINTH        FAIR      68  64  88 CALM      30.06R
GOLDN TRIANGLE CLEAR     73  64  73 SE8       30.05R
STARKVILLE     FAIR      70  68  94 E5        30.05S
TUPELO         CLEAR     72  68  87 S5        30.05S
$$

MSZ040-058-291100-
CENTRAL MISSISSIPPI

CITY           SKY/WX    TMP DP  RH WIND       PRES   REMARKS
JACKSON INTL   MOCLDY    70  66  87 S3        30.02S
JACKSON HAWKNS MOCLDY    71  65  81 CALM      30.03S
MERIDIAN KEY   MOCLDY    70  68  93 CALM      30.05R
MERIDIAN NAS   PTCLDY    72  69  90 SE5       30.06R
VICKSBURG      CLEAR     64  62  93 N3        30.00F
$$

MSZ059>079-291100-
SOUTH MISSISSIPPI

CITY           SKY/WX    TMP DP  RH WIND       PRES   REMARKS
BROOKHAVEN       N/A     64  64 100 CALM      30.05R
HATTIESBURG    CLEAR     69  65  86 CALM      30.04R
MCCOMB         CLEAR     66  66 100 CALM      30.02S FOG
NATCHEZ        CLEAR     64  61  88 CALM      30.02S
PINE BELT      CLEAR     64  61  88 CALM      30.06R
$$

MSZ080>082-291100-
COASTAL MISSISSIPPI

CITY           SKY/WX    TMP DP  RH WIND       PRES   REMARKS
BILOXI         CLEAR     75  69  81 N5        30.01R
PASCAGOULA     MOCLDY    67  67 100 CALM      30.02S
GULFPORT       MOCLDY    71  67  87 N3        30.01R
$$



USA.gov is the U.S. government's official web portal to all federal, state and local government web resources and services.